This demonstration page uses our WeatherBlox Daily Observations layout. Learn more.

Left ArrowRight Arrow

Hourly Observations for February 19, 2021

Temp ( °F °C ) Dew Point ( °F °C ) Humidity (%) Winds ( mph kmh ) Pressure ( in mb ) Visibility ( mi km ) Precip ( " mm )
12:54 am 00:54 Clear 5 -15 1 -17.2 83 83 S 5 7 30.45 1031 10 16.0934 0 0
1:54 am 01:54 Mostly Cloudy 5 -15 1 -17.2 83 83 S 3 6 30.42 1030 9 14.48406 0 0
2:54 am 02:54 Clear 7 -13.9 1 -17.2 76 76 W 5 7 30.41 1030 10 16.0934 0 0
3:54 am 03:54 Clear 5 -15 -1 -18.3 76 76 Calm 30.39 1029 10 16.0934 0 0
4:54 am 04:54 Clear 3 -16.1 -2 -18.9 79 79 S 3 6 30.38 1029 9 14.48406 0 0
5:54 am 05:54 Mostly Cloudy 4 -15.6 0 -17.8 83 83 SSW 3 6 30.37 1029 9 14.48406 0 0
6:54 am 06:54 Cloudy 5 -15 0 -17.8 79 79 Calm 30.36 1028 10 16.0934 0 0
7:54 am 07:54 Partly Cloudy 4 -15.6 0 -17.8 83 83 SSE 5 7 30.36 1028 9 14.48406 0 0
8:54 am 08:54 Sunny 6 -14.4 2 -16.7 83 83 SSW 6 9 30.39 1029 9 14.48406 0 0
9:54 am 09:54 Sunny 13 -10.6 6 -14.4 74 74 WSW 3 6 30.37 1029 10 16.0934 0 0
10:54 am 10:54 Sunny 15 -9.4 8 -13.3 74 74 SW 3 6 30.37 1028 10 16.0934 0 0
11:54 am 11:54 Sunny 19 -7.2 9 -12.8 65 65 Calm 30.36 1028 10 16.0934 0 0
12:54 pm 12:54 Sunny 23 -5 11 -11.7 60 60 WSW 5 7 30.35 1028 10 16.0934 0 0
1:54 pm 13:54 Sunny 24 -4.4 13 -10.6 62 62 Calm 30.3 1026 10 16.0934 0 0
2:54 pm 14:54 Sunny 29 -1.7 13 -10.6 51 51 Calm 30.27 1025 10 16.0934 0 0
3:54 pm 15:54 Sunny 26 -3.3 15 -9.4 63 63 SSE 5 7 30.27 1025 10 16.0934 0 0
4:54 pm 16:54 Sunny 25 -3.9 15 -9.4 66 66 NNE 7 11 30.28 1025 8 12.87472 0 0
5:54 pm 17:54 Sunny 23 -5 13 -10.6 65 65 NE 9 15 30.27 1025 8 12.87472 0 0
6:54 pm 18:54 Partly Cloudy 21 -6.1 13 -10.6 71 71 ENE 10 17 30.27 1025 9 14.48406 0 0
7:54 pm 19:54 Mostly Clear 20 -6.7 13 -10.6 74 74 E 5 7 30.28 1025 9 14.48406 0 0
8:54 pm 20:54 Clear 17 -8.3 11 -11.7 77 77 N 6 9 30.28 1026 8 12.87472 0 0
9:54 pm 21:54 Mostly Clear 13 -10.6 8 -13.3 81 81 N 5 7 30.29 1026 7 11.26538 0 0
10:54 pm 22:54 Clear 8 -13.3 3 -16.1 80 80 N 5 7 30.28 1025 7 11.26538 0 0
11:54 pm 23:54 Hazy 5 -15 0 -17.8 79 79 N 5 7 30.26 1025 6 9.65604 0 0

Powered by AerisWeather